Location: Kellogg
(38.0159°N, 90.0546°W)
Time: 11:55:51
(UTC+00:00)

Transit 2A - Pass Details

Date: 21 September 2024
Orbit: 590 x 960 km, 66.7° (Epoch: 11 October)

Event Time Altitude Azimuth Distance (km) Brightness Sun altitude
Rises 09:51:50 0° 311° (NW) 3,560 - -23.2°
Reaches altitude 10° 09:55:53 10° 286° (WNW) 2,546 - -22.4°
Maximum altitude 09:58:28 13° 260° (W) 2,272 - -21.9°
Drops below altitude 10° 10:01:00 10° 233° (SW) 2,435 - -21.5°
Sets 10:04:42 0° 207° (SSW) 3,272 - -20.8°
